Temp
14 14 15 14 13 14 16 14 15 14 14 14 14 14 13 13 13 12 12 11 12 12 11 11 11 11 10 10 10 10 11 11 10 10 10 10 10 10 10 10 10 10 10 10 10 10 10 10 10
14 15 13 13 14 16 15 15 14 14 14 14 14 13 14 13 14 14 13 12 12 12 11 11 11 11 11 10 10 10 10 10 10 10 10 10 10 10 10 10 10 11 10 10 10 10 10 10 10
15 13 12 13 14 16 16 16 15 15 14 14 13 14 13 11 11 13 11 13 12 12 11 11 11 11 11 10 10 10 10 10 10 10 10 10 10 10 10 10 11 10 10 10 10 10 10 10 9
15 13 13 13 15 16 16 16 15 15 14 14 14 13 12 11 10 10 11 12 12 12 12 11 11 11 11 11 10 10 10 10 10 10 10 10 10 10 10 10 10 10 10 10 10 10 10 9 9
13 13 14 15 16 16 16 16 16 15 15 13 13 12 12 10 10 10 10 12 12 12 12 11 11 11 11 11 11 11 10 10 11 10 10 10 10 10 10 10 10 10 10 10 10 10 10 10 10
12 14 15 16 16 16 16 16 16 15 14 13 14 13 11 10 10 10 10 12 12 12 12 12 11 11 11 11 11 11 11 10 10 10 10 10 10 10 10 10 10 10 10 10 10 9 9 9 10
14 15 15 15 15 15 16 16 16 15 14 13 12 13 11 10 10 11 9 11 12 12 12 11 12 11 11 11 11 11 10 11 10 10 10 10 10 10 10 10 9 9 10 10 9 9 9 9 10
13 13 15 15 16 16 16 16 15 15 14 13 13 14 13 12 10 10 10 12 12 12 12 12 12 12 11 11 11 11 11 11 11 10 10 10 10 10 10 9 9 10 10 9 10 10 9 9 10
14 14 16 16 15 16 16 16 15 14 14 14 13 13 13 12 10 10 11 12 12 12 12 12 12 12 11 12 11 11 11 11 11 11 10 10 10 10 9 9 9 10 9 10 11 10 9 10 10
16 17 17 17 16 17 16 16 15 15 14 13 12 12 11 12 11 11 12 12 12 12 12 12 12 12 11 11 11 11 11 11 11 11 10 10 10 10 10 9 9 9 9 10 11 10 10 10 10
17 18 18 17 17 17 17 16 16 15 15 14 13 12 11 12 11 10 12 11 13 12 12 12 12 12 11 11 11 11 11 10 10 11 10 10 9 9 10 9 10 9 9 10 10 9 9 10 10
18 18 18 17 17 18 16 16 16 15 15 15 13 12 11 10 12 13 11 12 12 12 12 11 11 11 11 11 11 11 10 10 11 10 11 10 9 9 9 9 9 9 8 9 10 10 9 10 10
17 18 17 17 17 17 17 17 16 15 14 14 12 12 11 12 11 12 11 12 11 12 12 12 11 11 11 11 10 10 10 10 10 11 11 11 10 10 9 8 9 9 10 10 10 10 9 10 10
17 18 18 17 17 17 17 17 16 14 14 13 12 12 11 11 11 11 10 10 11 11 12 11 11 11 11 10 10 10 10 9 10 11 10 9 9 10 9 9 8 9 10 11 10 9 9 9 10
17 17 18 18 17 16 17 17 15 15 14 13 12 12 12 12 12 12 12 10 11 10 11 11 11 12 11 11 11 11 10 10 10 10 10 10 9 9 9 8 9 9 10 9 9 10 9 10 10
18 16 15 17 17 17 16 16 15 15 14 13 13 12 12 12 12 12 12 11 11 11 11 12 11 11 11 11 11 10 10 11 10 10 10 9 9 9 9 9 8 10 9 9 10 9 9 10 10
16 15 15 15 17 17 17 17 17 16 15 14 14 13 12 12 11 11 11 10 11 12 12 12 11 11 11 11 11 10 10 10 10 10 10 10 9 9 9 10 10 10 10 10 10 10 10 9 10
16 16 16 17 17 17 17 18 18 17 17 16 15 14 13 12 12 11 10 10 11 12 12 13 12 12 11 11 11 11 11 10 10 10 11 10 9 10 10 11 10 10 8 9 10 10 10 9 9
17 17 18 18 18 17 18 18 18 18 17 17 16 15 14 13 13 12 11 11 10 12 13 13 13 12 12 12 11 11 11 11 10 10 10 10 10 10 10 10 10 10 11 10 10 10 10 9 10
17 18 19 19 18 18 18 18 19 19 18 18 17 17 15 14 13 13 13 12 12 12 13 13 13 13 12 12 11 11 11 11 10 10 10 10 9 10 10 10 10 10 10 10 10 11 10 10 10
17 19 18 18 18 18 18 18 19 19 19 19 18 18 17 15 14 13 13 14 12 13 13 13 13 13 12 12 12 11 11 11 11 11 10 10 9 10 10 10 10 10 9 11 10 11 11 10 10
19 18 17 18 18 18 18 19 21 20 19 19 18 18 18 16 15 14 13 12 13 13 12 12 12 13 13 12 12 12 11 11 11 10 10 10 10 9 10 10 10 10 10 10 11 11 11 10 9
18 17 17 18 19 19 20 19 21 20 19 19 19 19 18 18 17 15 14 13 11 13 12 12 12 12 12 12 12 12 11 11 11 11 10 10 10 10 10 10 10 10 10 10 11 10 11 11 10
18 17 18 18 19 19 17 20 19 19 19 18 19 18 18 18 17 16 14 13 12 12 12 13 12 12 12 12 12 11 11 11 11 11 11 10 10 9 10 10 10 10 10 10 11 10 11 11 10
19 19 19 20 19 18 17 15 19 19 19 19 19 18 17 17 16 16 15 14 12 12 13 13 13 12 12 12 11 11 11 11 11 11 10 10 10 10 10 10 10 10 10 10 10 11 10 11 10
19 19 20 19 19 18 16 13 17 18 20 19 19 19 17 17 17 16 16 15 14 14 12 13 12 12 12 12 11 11 11 12 11 11 11 10 10 10 10 10 10 10 10 10 10 11 10 11 10
19 19 19 19 18 19 16 14 16 19 19 20 20 19 18 17 17 17 16 15 14 14 13 13 12 12 12 12 11 11 11 12 12 11 11 11 10 10 10 10 10 10 10 10 10 10 10 10 10
18 18 17 17 19 19 21 19 17 18 17 15 18 19 19 17 17 17 16 16 15 14 13 12 12 12 12 12 12 12 12 12 12 12 11 11 11 10 10 10 10 10 10 10 10 10 10 9 10
18 17 17 14 14 17 16 16 14 16 16 17 19 19 19 18 17 16 15 15 14 13 13 13 13 12 13 13 12 12 12 12 11 12 11 11 11 11 10 10 10 10 10 11 11 10 10 10 9
18 19 18 17 17 18 17 16 16 16 15 16 17 19 18 18 17 16 15 14 14 13 12 14 14 13 13 13 12 12 12 12 12 12 11 11 11 11 10 10 10 10 10 10 10 11 10 10 9
Height
3174 3173 3174 3170 3177 3174 3169 3170 3170 3172 3175 3180 3181 3181 3180 3181 3183 3187 3187 3190 3193 3194 3196 3197 3199 3200 3201 3202 3202 3203 3203 3204 3204 3204 3204 3204 3204 3204 3204 3204 3203 3201 3200 3200 3201 3201 3201 3201 3201
3178 3176 3175 3173 3175 3177 3178 3174 3173 3175 3181 3183 3182 3182 3182 3184 3184 3185 3189 3192 3195 3197 3198 3199 3200 3202 3203 3204 3204 3205 3205 3205 3206 3207 3207 3207 3207 3206 3206 3205 3204 3203 3203 3203 3203 3203 3204 3203 3203
3180 3179 3167 3178 3178 3179 3182 3181 3180 3181 3183 3184 3182 3184 3185 3187 3187 3188 3192 3194 3197 3199 3201 3201 3202 3204 3205 3205 3206 3207 3207 3207 3208 3209 3209 3209 3209 3208 3207 3207 3206 3206 3206 3206 3207 3207 3206 3206 3205
3181 3178 3184 3183 3181 3185 3187 3184 3183 3182 3184 3183 3184 3186 3187 3191 3191 3193 3195 3196 3198 3200 3202 3204 3204 3206 3207 3208 3208 3209 3209 3210 3210 3210 3210 3210 3209 3210 3209 3209 3209 3209 3209 3209 3209 3208 3208 3207 3206
3182 3178 3181 3183 3185 3188 3188 3186 3184 3184 3187 3184 3184 3184 3188 3193 3195 3196 3197 3197 3199 3201 3202 3204 3206 3208 3209 3210 3211 3211 3211 3212 3212 3213 3212 3212 3211 3211 3211 3212 3212 3213 3212 3212 3210 3209 3209 3207 3206
3179 3183 3186 3186 3188 3188 3188 3187 3186 3186 3187 3186 3185 3184 3189 3193 3198 3200 3199 3200 3201 3204 3206 3207 3208 3209 3211 3212 3213 3213 3214 3214 3214 3214 3214 3213 3213 3213 3214 3215 3216 3216 3215 3213 3212 3211 3211 3209 3207
3177 3180 3185 3189 3188 3187 3188 3187 3188 3188 3189 3188 3188 3189 3192 3194 3202 3199 3201 3200 3204 3206 3206 3207 3210 3211 3213 3214 3215 3215 3215 3215 3215 3215 3215 3215 3216 3216 3217 3218 3219 3219 3217 3215 3213 3212 3211 3209 3207
3176 3178 3179 3183 3186 3187 3188 3190 3190 3191 3193 3192 3190 3191 3192 3194 3200 3198 3201 3202 3205 3207 3208 3210 3211 3212 3213 3216 3216 3217 3217 3217 3217 3217 3217 3217 3218 3218 3220 3220 3220 3220 3218 3218 3215 3213 3211 3209 3207
3177 3179 3181 3187 3187 3189 3190 3191 3192 3193 3195 3195 3194 3190 3192 3194 3198 3198 3198 3202 3205 3207 3209 3211 3212 3214 3214 3215 3218 3218 3219 3219 3219 3219 3219 3219 3219 3220 3222 3220 3220 3222 3220 3219 3217 3215 3211 3212 3209
3186 3183 3186 3188 3189 3191 3192 3193 3194 3195 3194 3194 3193 3191 3191 3193 3197 3200 3199 3202 3205 3207 3210 3212 3214 3214 3215 3216 3218 3219 3220 3220 3221 3219 3220 3220 3220 3220 3222 3222 3223 3222 3222 3220 3219 3216 3213 3213 3208
3189 3188 3189 3190 3190 3192 3194 3195 3194 3195 3197 3196 3193 3192 3192 3193 3197 3200 3200 3203 3204 3207 3210 3212 3215 3216 3216 3217 3218 3219 3219 3219 3220 3221 3221 3221 3222 3222 3224 3225 3223 3222 3223 3221 3220 3217 3216 3216 3212
3190 3190 3191 3191 3193 3194 3194 3197 3197 3196 3198 3199 3197 3193 3193 3195 3195 3199 3201 3203 3205 3206 3210 3211 3214 3215 3216 3217 3218 3219 3218 3218 3220 3222 3222 3222 3222 3223 3224 3225 3223 3225 3222 3223 3223 3218 3217 3217 3215
3191 3192 3192 3193 3194 3194 3196 3197 3199 3198 3198 3198 3196 3198 3195 3194 3196 3197 3201 3202 3203 3206 3208 3210 3212 3214 3216 3216 3218 3218 3217 3216 3220 3221 3221 3223 3223 3224 3226 3227 3226 3225 3226 3225 3223 3221 3220 3218 3217
3189 3194 3194 3194 3195 3196 3197 3197 3196 3198 3199 3198 3197 3198 3200 3196 3197 3199 3200 3202 3203 3204 3207 3209 3211 3213 3214 3216 3216 3217 3217 3217 3219 3220 3222 3223 3222 3224 3226 3226 3227 3226 3225 3225 3224 3222 3220 3222 3220
3194 3194 3196 3196 3196 3196 3198 3198 3197 3197 3198 3199 3198 3198 3200 3202 3199 3200 3200 3201 3202 3205 3204 3208 3209 3211 3213 3214 3216 3216 3217 3217 3219 3220 3221 3224 3222 3223 3223 3226 3226 3227 3226 3225 3223 3224 3224 3223 3223
3195 3197 3195 3193 3197 3197 3198 3198 3195 3198 3198 3199 3200 3200 3200 3201 3203 3200 3197 3201 3202 3201 3203 3206 3207 3209 3211 3212 3214 3215 3217 3217 3218 3220 3221 3223 3222 3223 3223 3225 3225 3226 3226 3225 3225 3224 3224 3224 3223
3198 3198 3195 3194 3196 3198 3198 3196 3196 3197 3196 3197 3198 3198 3200 3201 3202 3204 3203 3199 3199 3200 3202 3204 3206 3208 3210 3211 3212 3213 3215 3216 3216 3218 3220 3220 3223 3223 3222 3223 3225 3225 3225 3224 3226 3224 3225 3225 3223
3196 3195 3193 3194 3195 3196 3196 3194 3194 3194 3195 3195 3196 3196 3196 3197 3199 3200 3201 3202 3198 3199 3201 3203 3204 3206 3208 3208 3210 3212 3212 3214 3214 3216 3218 3219 3220 3223 3223 3223 3223 3223 3224 3223 3226 3226 3224 3225 3223
3193 3194 3192 3192 3194 3194 3194 3193 3192 3193 3192 3193 3193 3193 3193 3194 3194 3198 3199 3200 3198 3198 3200 3201 3203 3204 3206 3207 3209 3210 3211 3212 3213 3214 3215 3217 3218 3221 3222 3223 3222 3223 3224 3223 3224 3226 3224 3225 3223
3191 3191 3190 3191 3191 3192 3190 3189 3188 3188 3189 3190 3189 3191 3188 3190 3191 3191 3196 3198 3199 3196 3198 3199 3201 3203 3204 3205 3207 3209 3210 3210 3210 3211 3212 3215 3216 3219 3221 3222 3222 3222 3222 3222 3223 3225 3225 3225 3224
3191 3188 3189 3191 3190 3189 3188 3185 3181 3182 3183 3185 3187 3188 3187 3184 3184 3188 3188 3191 3195 3196 3196 3197 3200 3201 3202 3203 3204 3206 3208 3209 3209 3209 3210 3212 3215 3217 3219 3220 3221 3223 3223 3221 3223 3223 3225 3225 3225
3186 3184 3192 3190 3191 3188 3187 3183 3177 3178 3183 3183 3184 3184 3185 3181 3181 3181 3183 3187 3188 3192 3195 3197 3198 3200 3200 3201 3202 3204 3205 3206 3207 3206 3207 3209 3211 3213 3215 3217 3219 3220 3222 3222 3222 3222 3224 3225 3225
3186 3189 3188 3188 3187 3187 3184 3183 3175 3177 3179 3176 3176 3182 3183 3179 3179 3178 3179 3182 3186 3187 3191 3194 3197 3198 3200 3200 3201 3202 3203 3204 3204 3204 3203 3204 3206 3208 3211 3213 3216 3217 3219 3220 3221 3221 3222 3224 3224
3185 3187 3186 3185 3185 3183 3182 3177 3175 3178 3178 3181 3179 3180 3180 3181 3175 3178 3180 3182 3185 3184 3188 3189 3194 3196 3198 3199 3200 3200 3200 3200 3200 3200 3200 3201 3202 3205 3208 3210 3212 3213 3216 3218 3219 3220 3221 3222 3224
3182 3181 3180 3178 3179 3177 3179 3179 3175 3178 3176 3174 3178 3178 3179 3179 3177 3177 3179 3179 3181 3180 3184 3184 3189 3192 3195 3196 3197 3198 3198 3198 3198 3197 3198 3198 3199 3202 3205 3207 3209 3211 3213 3215 3217 3218 3219 3221 3222
3177 3179 3177 3176 3176 3176 3179 3179 3171 3173 3178 3178 3174 3175 3177 3178 3180 3174 3175 3176 3178 3177 3180 3180 3183 3189 3191 3193 3195 3195 3196 3197 3197 3196 3196 3196 3197 3199 3201 3203 3205 3208 3211 3214 3214 3216 3218 3219 3221
3176 3174 3179 3174 3180 3173 3173 3170 3168 3174 3171 3174 3173 3173 3173 3174 3178 3179 3174 3173 3174 3175 3178 3178 3179 3186 3188 3190 3192 3193 3194 3195 3196 3196 3196 3195 3196 3196 3197 3201 3203 3206 3209 3211 3212 3214 3216 3217 3218
3173 3173 3177 3176 3172 3169 3163 3163 3170 3171 3169 3176 3169 3175 3174 3172 3174 3176 3178 3178 3174 3176 3176 3175 3176 3181 3185 3186 3187 3190 3191 3192 3193 3194 3194 3195 3194 3195 3195 3198 3201 3203 3205 3208 3209 3212 3214 3216 3216
3171 3171 3176 3181 3181 3172 3173 3174 3179 3182 3179 3174 3170 3175 3175 3172 3173 3174 3174 3177 3177 3175 3173 3175 3176 3177 3180 3182 3183 3186 3188 3188 3189 3190 3192 3193 3193 3192 3193 3194 3197 3199 3201 3204 3206 3208 3211 3212 3213
3165 3166 3167 3171 3166 3166 3168 3171 3170 3176 3177 3174 3166 3173 3174 3174 3173 3172 3172 3173 3174 3174 3173 3172 3174 3175 3176 3178 3180 3180 3182 3183 3185 3187 3187 3188 3189 3189 3189 3190 3191 3193 3196 3198 3201 3204 3207 3209 3209
Wind_Speed
6 5 6 15 8 11 16 17 17 16 17 13 11 11 16 9 11 12 23 18 19 19 18 16 15 15 13 13 12 11 11 10 9 8 7 7 7 8 9 9 10 10 11 13 14 13 12 13 13
7 11 8 8 12 16 16 16 21 20 14 13 11 8 6 10 5 16 22 19 20 18 18 16 15 14 13 11 10 9 9 8 6 5 5 6 6 7 8 9 10 11 13 15 15 15 14 13 13
18 14 9 13 14 17 13 13 12 11 8 9 3 6 8 15 9 23 21 20 20 18 16 16 14 14 12 11 9 7 6 6 5 5 5 6 6 7 8 9 10 11 13 14 14 14 15 14 14
10 3 8 17 17 15 13 12 10 10 9 1 6 4 17 25 14 22 21 18 20 19 16 14 13 12 11 10 8 6 6 5 6 6 6 6 6 7 8 10 11 11 13 13 14 15 15 15 15
10 4 6 18 15 13 11 10 11 10 11 5 3 7 13 21 14 19 14 19 20 18 17 15 13 11 9 8 8 6 5 6 7 8 7 7 6 8 10 12 11 12 13 14 14 15 16 14 14
9 4 6 13 14 13 11 10 11 12 10 1 3 13 20 25 20 20 21 16 17 15 14 11 10 10 8 7 6 7 6 6 7 8 8 8 7 10 11 11 12 12 14 15 14 15 19 15 17
17 11 8 7 10 13 10 14 12 11 6 7 5 8 17 26 25 22 16 16 17 14 14 11 8 7 6 6 5 5 6 6 6 7 9 9 9 12 12 12 12 12 14 16 15 16 17 16 16
15 10 11 10 12 13 11 11 11 7 10 4 4 3 13 18 27 23 23 19 18 16 12 7 6 7 7 4 5 5 4 4 6 7 9 11 9 11 12 13 12 13 13 14 14 16 17 15 12
16 2 15 6 8 9 10 7 8 9 9 4 2 6 5 15 27 24 20 19 19 16 14 10 3 6 6 4 2 3 3 3 3 7 7 9 10 10 11 10 10 14 12 13 11 14 13 19 17
11 6 8 12 9 10 9 7 5 4 4 7 9 8 8 17 22 22 16 16 19 15 12 12 5 7 3 4 2 1 2 5 1 6 5 8 11 11 12 10 8 9 16 16 15 16 17 23 15
2 1 8 11 10 8 8 9 6 7 8 4 7 10 13 9 15 18 17 16 14 16 12 12 9 10 4 5 1 3 3 9 4 2 5 7 6 5 6 9 8 14 13 19 17 15 15 19 15
4 7 6 5 8 6 7 8 7 9 7 5 10 9 16 13 10 12 14 12 16 17 15 14 11 8 9 11 7 4 8 6 7 5 6 8 6 1 3 9 12 7 6 4 12 8 9 15 17
4 5 5 7 6 6 5 4 5 6 7 9 13 17 12 7 11 9 11 12 13 14 15 16 13 10 8 9 9 8 8 11 11 9 7 6 5 3 4 1 5 9 7 8 11 13 16 13 8
5 2 6 4 5 3 1 3 7 3 7 10 11 15 14 12 6 11 11 11 15 11 14 16 12 11 9 11 9 9 9 11 13 8 4 5 3 4 3 1 4 8 4 7 9 8 12 6 10
1 5 3 3 3 1 2 3 3 8 7 10 10 11 13 13 12 11 12 15 12 16 16 14 16 11 11 11 10 10 9 11 13 10 7 5 10 6 6 4 6 5 4 9 5 6 4 7 6
6 6 4 8 1 4 2 2 10 7 7 8 10 10 11 14 15 13 15 10 9 14 15 12 15 11 12 13 12 11 12 10 12 11 8 8 10 6 6 5 2 3 2 5 5 4 6 10 11
7 8 6 8 5 3 4 1 3 8 8 10 10 11 12 12 15 19 16 15 14 15 15 12 13 13 13 13 11 10 11 15 15 14 13 12 10 9 8 3 6 3 6 3 5 4 3 9 6
10 8 9 9 6 5 6 9 7 13 10 12 13 15 16 16 14 16 15 17 20 16 15 14 12 12 12 13 14 12 10 11 16 15 14 12 13 14 12 10 4 4 4 3 3 2 3 2 6
6 6 10 4 4 3 8 9 9 9 13 13 15 19 19 19 16 16 14 15 21 13 9 11 11 13 13 14 14 13 10 10 14 16 17 10 11 13 11 8 7 7 4 2 2 1 3 2 4
7 11 9 4 2 9 9 13 14 15 15 16 17 17 23 21 25 19 16 18 18 17 6 4 8 11 13 13 13 13 14 14 15 16 17 14 13 14 15 13 13 8 5 3 3 1 0 1 2
13 14 7 8 6 11 15 19 19 15 15 15 16 16 21 26 29 24 24 19 17 16 12 6 6 8 11 12 14 14 15 16 16 15 17 16 16 16 18 15 15 13 9 6 5 4 3 2 3
17 7 12 8 12 16 7 17 12 11 7 11 9 16 17 28 29 27 25 23 19 17 15 11 8 5 6 9 11 11 12 14 15 18 18 18 17 19 19 18 17 18 15 10 9 4 3 3 4
16 7 10 11 16 14 17 21 9 6 10 13 13 3 8 25 28 32 28 23 22 20 18 17 12 9 7 5 5 6 10 13 16 16 18 18 18 20 19 17 15 18 18 13 10 7 5 4 4
16 10 13 13 17 19 17 20 15 1 4 5 3 5 6 6 24 23 25 23 26 27 21 21 18 13 11 9 8 8 9 11 13 15 13 12 14 17 17 17 15 15 19 13 12 9 6 4 6
20 18 20 15 12 4 5 16 10 8 6 2 7 3 3 3 18 18 21 24 30 30 23 28 20 18 15 12 11 11 10 10 11 12 12 10 10 13 16 16 15 16 17 12 12 11 7 6 7
23 23 19 16 4 7 7 10 13 8 3 4 5 7 5 2 6 18 20 23 23 28 22 27 30 22 17 14 14 13 13 9 8 7 9 10 12 14 17 18 12 17 16 14 11 11 8 7 8
25 30 19 31 13 14 13 25 17 7 7 4 1 1 7 5 4 9 18 20 23 26 25 30 28 22 21 18 16 14 14 13 11 8 7 8 11 14 15 13 13 17 17 14 11 12 10 8 9
25 13 12 22 14 13 20 5 5 1 5 10 7 4 4 5 4 6 12 19 23 25 29 25 29 24 23 22 20 16 12 14 16 13 11 9 9 12 16 16 18 19 17 18 16 14 13 10 11
22 9 3 18 19 3 6 4 9 4 3 4 9 1 2 0 5 3 11 17 20 25 30 24 23 25 23 22 23 19 20 18 19 19 17 16 15 13 14 17 16 20 20 21 20 20 17 16 12
25 25 24 29 10 10 24 11 13 9 3 9 6 5 3 3 5 9 8 13 18 24 28 20 13 23 19 19 20 20 17 18 16 18 18 19 19 19 16 18 19 19 19 20 21 24 19 16 15
Wind_Direction
63 89 76 65 40 62 69 94 103 89 80 78 85 77 94 124 140 135 150 157 150 142 139 138 134 128 124 122 120 113 106 105 109 109 101 84 67 51 42 38 34 31 33 40 40 43 46 42 38
62 81 43 74 88 86 67 75 69 86 94 102 120 116 74 85 143 146 153 153 145 141 139 139 137 131 130 127 126 120 114 110 99 87 70 59 48 47 40 38 40 42 47 45 45 48 47 39 31
85 56 90 74 71 83 87 81 87 88 81 91 100 162 97 112 105 143 158 150 145 141 138 138 136 135 136 134 130 123 110 103 86 59 44 37 33 37 47 50 57 62 57 53 45 38 30 28 20
92 353 160 91 110 90 85 81 89 88 87 90 185 150 137 125 154 146 145 153 146 143 139 138 135 136 136 135 128 121 105 78 64 50 34 34 44 52 60 71 74 70 60 48 34 25 20 17 15
31 306 72 109 88 94 81 74 76 81 101 82 266 184 157 137 145 141 152 159 153 147 146 143 140 138 135 131 123 102 86 70 62 54 48 37 52 68 74 80 77 67 56 40 31 30 22 23 11
334 123 121 102 105 98 80 75 79 80 109 75 346 119 138 146 137 159 185 171 156 147 142 144 146 143 137 127 114 103 76 62 60 64 55 60 61 76 82 79 73 61 39 30 26 23 29 21 6
69 138 86 110 104 92 78 79 73 98 94 122 81 65 141 142 146 185 199 193 156 162 155 151 155 150 138 127 108 83 79 70 66 68 76 75 79 83 80 73 62 43 30 26 26 22 19 23 11
162 101 50 87 109 101 91 86 79 113 96 74 354 296 178 162 145 193 201 191 165 177 169 147 168 173 154 133 109 81 59 57 79 74 83 89 86 87 80 63 55 45 37 27 18 22 16 21 23
327 241 94 113 114 108 103 90 75 84 104 123 237 294 214 164 168 200 199 198 180 184 188 176 133 199 179 165 123 95 61 24 62 91 96 105 108 65 82 74 53 34 49 21 14 26 23 10 31
85 131 102 124 119 117 97 82 103 95 107 87 113 171 237 186 178 176 209 196 189 198 195 191 168 146 205 171 101 269 44 344 256 108 104 120 106 103 67 51 41 43 44 28 35 25 19 21 34
21 101 95 93 108 116 101 77 79 87 85 115 163 173 183 199 187 188 217 204 214 208 207 208 209 227 246 182 161 312 202 334 269 148 117 117 99 48 81 12 12 40 32 32 17 17 41 47 30
37 86 87 80 100 109 88 85 72 63 68 160 170 189 196 203 214 196 206 209 210 217 213 220 216 227 229 227 257 203 243 312 211 189 143 143 133 74 61 17 1 16 7 36 39 4 50 49 34
140 116 124 110 105 98 104 93 67 73 76 140 168 165 202 217 203 208 205 207 216 213 221 230 224 231 224 224 233 242 244 249 204 198 177 190 97 157 59 141 338 336 352 31 44 28 37 49 34
45 119 113 102 152 167 142 121 303 157 128 138 159 167 177 239 276 213 221 220 225 223 216 227 236 228 224 228 222 239 259 230 201 206 216 210 170 167 196 11 341 341 16 32 46 356 49 36 43
255 222 144 151 148 242 239 226 359 160 150 154 159 173 176 200 263 285 278 229 236 213 239 218 230 217 223 226 233 237 232 209 206 224 210 206 239 200 156 281 239 326 347 15 49 16 30 35 66
250 62 352 130 222 229 232 305 168 174 173 171 181 179 191 176 213 254 286 279 253 245 237 216 230 224 224 227 233 232 227 213 223 224 229 228 246 231 210 106 346 3 3 355 360 43 24 18 49
38 274 243 269 216 229 219 184 162 208 195 204 200 202 202 206 203 196 225 265 282 267 268 237 226 223 223 228 236 241 241 243 243 237 238 244 252 237 212 207 259 346 307 43 44 34 39 44 27
204 235 247 201 190 219 238 251 250 221 217 222 221 220 208 209 221 211 209 199 246 268 267 241 233 237 225 232 235 239 234 239 249 258 253 246 269 218 217 215 208 267 280 84 37 20 44 46 51
252 243 244 199 186 287 266 269 257 249 238 224 224 228 223 213 235 221 210 213 226 262 252 239 233 235 233 234 236 240 249 245 251 263 265 261 263 229 220 224 257 255 251 205 114 312 37 54 25
223 258 271 307 148 296 267 272 266 252 241 239 234 232 235 217 220 237 249 223 204 241 247 214 236 233 235 232 238 242 245 249 246 249 263 264 264 226 224 229 246 239 269 242 203 202 343 38 330
246 240 231 278 306 281 274 283 288 241 232 238 245 236 238 235 232 230 235 260 225 223 243 259 225 223 228 233 236 240 249 254 261 264 261 266 256 240 233 235 252 253 261 257 236 195 229 288 289
260 222 263 262 287 274 258 273 289 204 232 232 240 231 237 231 238 236 240 236 254 222 221 233 243 224 228 234 244 250 251 257 265 270 267 261 246 249 239 246 247 250 245 259 248 232 237 259 297
254 237 241 257 269 280 274 245 255 277 211 239 223 177 244 240 241 239 242 238 230 245 235 233 232 238 232 240 251 255 268 273 276 275 271 263 252 242 245 242 237 246 236 243 239 234 237 245 278
227 234 247 257 259 255 335 265 65 213 170 233 274 237 266 227 237 243 233 236 223 245 239 240 236 239 242 249 267 274 278 279 284 288 284 270 256 237 241 240 242 250 226 238 234 231 236 249 265
226 244 257 245 227 265 351 345 257 211 207 168 234 253 283 214 221 235 236 233 232 251 258 252 241 240 249 252 262 274 284 285 288 291 287 271 254 238 240 237 239 223 219 226 227 233 235 248 259
233 242 249 265 243 328 218 231 203 253 265 239 228 200 198 206 204 235 237 248 258 267 264 267 256 241 254 257 256 263 273 270 289 303 295 278 259 257 240 234 231 212 222 221 220 230 236 248 254
233 238 250 270 264 258 196 223 137 224 198 182 158 225 197 176 167 212 242 245 255 265 260 271 256 254 253 257 255 265 266 261 264 280 306 307 273 261 262 245 227 222 226 228 225 238 238 233 258
235 262 286 277 290 250 259 75 83 133 263 139 301 358 222 216 327 211 205 223 246 252 258 257 258 259 251 252 254 258 269 266 263 263 276 298 302 272 262 248 238 235 232 232 244 251 243 237 247
220 210 247 225 257 273 351 46 37 250 249 253 293 224 33 220 325 267 212 205 221 232 246 260 257 245 250 249 265 264 267 271 267 267 268 275 283 288 269 255 243 233 236 243 246 248 242 237 245
236 235 219 214 189 221 211 225 149 214 348 77 315 30 347 187 293 296 222 210 214 224 242 256 254 238 254 255 260 274 273 274 269 263 270 271 270 272 276 256 246 241 241 243 238 237 230 231 237